NUA514 DNMM-DNPO

Flight info

Callsign NUA514
Flight time 0h 45m
Altitude 25000
Route BOTBO1Q BOTBO R984 ARAGU ARAGU1R
Aircraft A320/M-SDE3FGHIRWY/LB1

Departure

Time 2026-05-04 13:28
Airport Murtala Muhammed International Airport (DNMM)

Arrival

Time 2026-05-04 14:14
Airport Port Harcourt International Airport (DNPO)
Time Latitude Longitude Altitude Speed Heading
2026-05-04 13:04 6.58060 3.32237 99 ft 0 kts 112°
2026-05-04 13:15 6.58061 3.32235 99 ft 1 kts 112°
2026-05-04 13:16 6.58066 3.32222 98 ft 2 kts 112°
2026-05-04 13:16 6.58072 3.32208 98 ft 2 kts 112°
2026-05-04 13:16 6.58078 3.32194 97 ft 2 kts 112°
2026-05-04 13:16 6.58083 3.32183 97 ft 0 kts 112°
2026-05-04 13:17 6.58086 3.32171 97 ft 2 kts 79°
2026-05-04 13:17 6.58079 3.32157 97 ft 2 kts 42°
2026-05-04 13:17 6.58073 3.32152 97 ft 1 kts 20°
2026-05-04 13:17 6.58067 3.32151 97 ft 0 kts 21°
2026-05-04 13:19 6.58080 3.32156 97 ft 4 kts 22°
2026-05-04 13:19 6.58124 3.32174 95 ft 9 kts 22°
2026-05-04 13:20 6.58191 3.32200 95 ft 5 kts 21°
2026-05-04 13:20 6.58216 3.32224 95 ft 5 kts 59°
2026-05-04 13:20 6.58223 3.32262 96 ft 5 kts 98°
2026-05-04 13:20 6.58209 3.32302 97 ft 6 kts 112°
2026-05-04 13:21 6.58194 3.32338 100 ft 5 kts 112°
2026-05-04 13:21 6.58176 3.32383 102 ft 10 kts 111°
2026-05-04 13:21 6.58146 3.32461 105 ft 12 kts 111°
2026-05-04 13:21 6.58112 3.32547 106 ft 14 kts 111°
2026-05-04 13:22 6.58075 3.32641 107 ft 13 kts 111°
2026-05-04 13:22 6.58066 3.32673 107 ft 8 kts 93°
2026-05-04 13:22 6.58069 3.32689 107 ft 6 kts 56°
2026-05-04 13:22 6.58125 3.32699 109 ft 8 kts 358°
2026-05-04 13:23 6.58188 3.32698 110 ft 9 kts
2026-05-04 13:23 6.58261 3.32697 113 ft 11 kts 359°
2026-05-04 13:23 6.58351 3.32696 115 ft 14 kts 359°
2026-05-04 13:23 6.58457 3.32695 118 ft 16 kts 359°
2026-05-04 13:24 6.58576 3.32694 122 ft 18 kts 359°
2026-05-04 13:24 6.58709 3.32692 125 ft 19 kts 359°
2026-05-04 13:24 6.58850 3.32691 128 ft 20 kts 359°
2026-05-04 13:25 6.59136 3.32687 132 ft 19 kts 358°
2026-05-04 13:25 6.59275 3.32686 132 ft 20 kts 360°
2026-05-04 13:25 6.59418 3.32685 134 ft 20 kts 358°
2026-05-04 13:25 6.59556 3.32682 138 ft 18 kts 360°
2026-05-04 13:26 6.59672 3.32682 141 ft 14 kts
2026-05-04 13:26 6.59731 3.32736 143 ft 11 kts 82°
2026-05-04 13:26 6.59716 3.32816 144 ft 12 kts 118°
2026-05-04 13:26 6.59662 3.32877 143 ft 9 kts 147°
2026-05-04 13:27 6.59631 3.32884 143 ft 0 kts 177°
2026-05-04 13:27 6.59603 3.32885 142 ft 18 kts 179°
2026-05-04 13:27 6.59211 3.32891 132 ft 91 kts 179°
2026-05-04 13:27 6.58356 3.32900 118 ft 151 kts 179°
2026-05-04 13:28 6.57194 3.32911 398 ft 172 kts 178°
2026-05-04 13:28 6.56004 3.32937 1022 ft 172 kts 177°
2026-05-04 13:28 6.54810 3.32986 1650 ft 172 kts 176°
2026-05-04 13:28 6.53665 3.33208 2202 ft 171 kts 148°
2026-05-04 13:29 6.53011 3.34154 2690 ft 174 kts 97°
2026-05-04 13:29 6.53093 3.35361 3231 ft 175 kts 83°
2026-05-04 13:29 6.53224 3.36598 3636 ft 186 kts 84°
2026-05-04 13:29 6.53350 3.37954 3982 ft 203 kts 84°
2026-05-04 13:30 6.53486 3.39395 4418 ft 214 kts 84°
2026-05-04 13:30 6.53586 3.40903 5047 ft 216 kts 91°
2026-05-04 13:30 6.53347 3.42383 5631 ft 221 kts 103°
2026-05-04 13:30 6.52866 3.43932 5904 ft 245 kts 106°
2026-05-04 13:31 6.52294 3.45619 6309 ft 263 kts 106°
2026-05-04 13:31 6.51693 3.47385 6843 ft 273 kts 105°
2026-05-04 13:31 6.51081 3.49186 7632 ft 274 kts 105°
2026-05-04 13:31 6.50470 3.50996 8463 ft 273 kts 104°
2026-05-04 13:32 6.49868 3.52788 9259 ft 272 kts 104°
2026-05-04 13:32 6.49276 3.54565 10013 ft 272 kts 104°
2026-05-04 13:32 6.48669 3.56402 10550 ft 282 kts 104°
2026-05-04 13:32 6.48038 3.58320 10843 ft 299 kts 104°
2026-05-04 13:33 6.47367 3.60354 11130 ft 315 kts 104°
2026-05-04 13:33 6.46665 3.62470 11579 ft 325 kts 105°
2026-05-04 13:33 6.45940 3.64646 12205 ft 328 kts 105°
2026-05-04 13:33 6.45222 3.66800 12850 ft 331 kts 105°
2026-05-04 13:34 6.44488 3.69004 13459 ft 333 kts 105°
2026-05-04 13:34 6.43753 3.71213 14017 ft 337 kts 105°
2026-05-04 13:34 6.43001 3.73475 14565 ft 341 kts 105°
2026-05-04 13:34 6.42254 3.75726 15059 ft 345 kts 106°
2026-05-04 13:35 6.41485 3.78035 15559 ft 349 kts 105°
2026-05-04 13:35 6.39941 3.82678 16506 ft 355 kts 106°
2026-05-04 13:35 6.39161 3.85021 16936 ft 359 kts 106°
2026-05-04 13:36 6.38366 3.87414 17383 ft 361 kts 106°
2026-05-04 13:36 6.37567 3.89819 17813 ft 364 kts 106°
2026-05-04 13:36 6.36759 3.92253 18218 ft 368 kts 106°
2026-05-04 13:36 6.35944 3.94703 18596 ft 372 kts 107°
2026-05-04 13:37 6.35130 3.97148 18971 ft 375 kts 107°
2026-05-04 13:37 6.34297 3.99651 19338 ft 378 kts 107°
2026-05-04 13:37 6.33464 4.02149 19707 ft 381 kts 107°
2026-05-04 13:37 6.32894 4.03860 19958 ft 383 kts 107°
2026-05-04 13:38 6.31765 4.07252 20412 ft 387 kts 107°
2026-05-04 13:38 6.30917 4.09799 20751 ft 390 kts 107°
2026-05-04 13:38 6.30053 4.12393 21086 ft 393 kts 107°
2026-05-04 13:38 6.29177 4.15022 21427 ft 396 kts 107°
2026-05-04 13:39 6.28308 4.17632 21750 ft 398 kts 107°
2026-05-04 13:39 6.27429 4.20272 22076 ft 401 kts 107°
2026-05-04 13:39 6.26534 4.22965 22394 ft 403 kts 108°
2026-05-04 13:39 6.25646 4.25628 22720 ft 406 kts 107°
2026-05-04 13:40 6.24747 4.28313 23058 ft 407 kts 108°
2026-05-04 13:40 6.23747 4.30988 23391 ft 410 kts 111°
2026-05-04 13:40 6.22589 4.33618 23701 ft 412 kts 114°
2026-05-04 13:40 6.21366 4.36195 24019 ft 414 kts 114°
2026-05-04 13:41 6.20106 4.38836 24328 ft 416 kts 114°
2026-05-04 13:41 6.18862 4.41440 24615 ft 419 kts 114°
2026-05-04 13:41 6.17594 4.44099 24853 ft 421 kts 114°
2026-05-04 13:42 6.15063 4.49408 24879 ft 421 kts 114°
2026-05-04 13:42 6.13796 4.52069 24881 ft 421 kts 114°
2026-05-04 13:42 6.12533 4.54721 24880 ft 421 kts 114°
2026-05-04 13:42 6.11264 4.57385 24880 ft 420 kts 114°
2026-05-04 13:43 6.10013 4.60013 24883 ft 420 kts 114°
2026-05-04 13:43 6.08752 4.62662 24882 ft 420 kts 114°
2026-05-04 13:43 6.07487 4.65319 24881 ft 420 kts 114°
2026-05-04 13:43 6.06236 4.67947 24882 ft 420 kts 114°
2026-05-04 13:44 6.04971 4.70603 24883 ft 421 kts 114°
2026-05-04 13:44 6.03708 4.73250 24882 ft 421 kts 114°
2026-05-04 13:44 6.02443 4.75904 24882 ft 421 kts 114°
2026-05-04 13:44 6.01178 4.78558 24882 ft 421 kts 114°
2026-05-04 13:45 5.99915 4.81208 24883 ft 421 kts 114°
2026-05-04 13:45 5.98646 4.83870 24882 ft 421 kts 114°
2026-05-04 13:45 5.97384 4.86518 24882 ft 420 kts 114°
2026-05-04 13:45 5.96122 4.89165 24882 ft 420 kts 114°
2026-05-04 13:46 5.94869 4.91794 24882 ft 420 kts 114°
2026-05-04 13:46 5.93616 4.94425 24882 ft 420 kts 114°
2026-05-04 13:46 5.92357 4.97066 24883 ft 420 kts 114°
2026-05-04 13:46 5.91093 4.99713 24883 ft 421 kts 114°
2026-05-04 13:47 5.89816 5.02390 24883 ft 421 kts 114°
2026-05-04 13:47 5.88554 5.05019 24883 ft 421 kts 114°
2026-05-04 13:47 5.87279 5.07671 24883 ft 421 kts 114°
2026-05-04 13:47 5.86014 5.10306 24883 ft 421 kts 114°
2026-05-04 13:48 5.84742 5.12953 24882 ft 421 kts 114°
2026-05-04 13:48 5.83472 5.15597 24882 ft 421 kts 114°
2026-05-04 13:48 5.82198 5.18252 24881 ft 420 kts 114°
2026-05-04 13:48 5.80929 5.20897 24882 ft 421 kts 114°
2026-05-04 13:49 5.79650 5.23566 24881 ft 421 kts 114°
2026-05-04 13:49 5.78395 5.26182 24881 ft 421 kts 114°
2026-05-04 13:49 5.77114 5.28850 24882 ft 421 kts 114°
2026-05-04 13:49 5.75838 5.31508 24881 ft 420 kts 114°
2026-05-04 13:50 5.74572 5.34150 24879 ft 421 kts 114°
2026-05-04 13:50 5.73308 5.36787 24876 ft 421 kts 114°
2026-05-04 13:50 5.72048 5.39409 24877 ft 420 kts 114°
2026-05-04 13:50 5.70783 5.42046 24877 ft 420 kts 114°
2026-05-04 13:51 5.69518 5.44682 24876 ft 420 kts 114°
2026-05-04 13:51 5.68251 5.47321 24874 ft 420 kts 114°
2026-05-04 13:51 5.66967 5.49993 24872 ft 420 kts 114°
2026-05-04 13:51 5.65714 5.52600 24872 ft 421 kts 114°
2026-05-04 13:52 5.63158 5.57922 24871 ft 421 kts 114°
2026-05-04 13:52 5.61885 5.60572 24870 ft 421 kts 114°
2026-05-04 13:52 5.60627 5.63190 24869 ft 421 kts 114°
2026-05-04 13:53 5.59356 5.65835 24868 ft 420 kts 114°
2026-05-04 13:53 5.58091 5.68467 24867 ft 420 kts 114°
2026-05-04 13:53 5.56808 5.71136 24866 ft 420 kts 114°
2026-05-04 13:54 5.54281 5.76393 24866 ft 420 kts 114°
2026-05-04 13:54 5.53006 5.79044 24868 ft 420 kts 114°
2026-05-04 13:54 5.50479 5.84298 24865 ft 420 kts 114°
2026-05-04 13:55 5.49199 5.86961 24864 ft 420 kts 114°
2026-05-04 13:55 5.46652 5.92253 24066 ft 420 kts 114°
2026-05-04 13:55 5.45399 5.94856 23537 ft 416 kts 114°
2026-05-04 13:56 5.44148 5.97453 23004 ft 412 kts 114°
2026-05-04 13:56 5.42921 6.00006 22477 ft 408 kts 114°
2026-05-04 13:56 5.40470 6.05103 21454 ft 401 kts 114°
2026-05-04 13:57 5.39277 6.07584 20946 ft 398 kts 114°
2026-05-04 13:57 5.38066 6.10101 20425 ft 395 kts 114°
2026-05-04 13:58 5.34541 6.17421 18886 ft 386 kts 114°
2026-05-04 13:58 5.32332 6.22295 17853 ft 380 kts 112°
2026-05-04 13:58 5.31280 6.24688 17340 ft 378 kts 112°
2026-05-04 13:59 5.30220 6.27094 16818 ft 375 kts 112°
2026-05-04 13:59 5.29162 6.29486 16291 ft 372 kts 111°
2026-05-04 13:59 5.27074 6.34195 15244 ft 368 kts 111°
2026-05-04 14:00 5.26051 6.36501 14731 ft 365 kts 111°
2026-05-04 14:00 5.23994 6.41140 13684 ft 360 kts 110°
2026-05-04 14:00 5.22984 6.43418 13168 ft 357 kts 110°
2026-05-04 14:01 5.21978 6.45686 12650 ft 354 kts 110°
2026-05-04 14:01 5.20999 6.47899 12239 ft 346 kts 110°
2026-05-04 14:01 5.19120 6.52130 12032 ft 317 kts 110°
2026-05-04 14:02 5.18237 6.54119 11934 ft 310 kts 109°
2026-05-04 14:02 5.17363 6.56097 11844 ft 309 kts 109°
2026-05-04 14:02 5.16493 6.58063 11760 ft 309 kts 109°
2026-05-04 14:02 5.15634 6.60000 11679 ft 302 kts 109°
2026-05-04 14:03 5.14791 6.61890 11622 ft 287 kts 109°
2026-05-04 14:03 5.13980 6.63712 11414 ft 285 kts 109°
2026-05-04 14:03 5.13182 6.65511 11089 ft 282 kts 109°
2026-05-04 14:03 5.12390 6.67298 10739 ft 280 kts 109°
2026-05-04 14:04 5.10823 6.70830 10039 ft 276 kts 109°
2026-05-04 14:04 5.10040 6.72595 9631 ft 276 kts 109°
2026-05-04 14:04 5.09260 6.74350 9288 ft 274 kts 109°
2026-05-04 14:05 5.07716 6.77831 8473 ft 274 kts 110°
2026-05-04 14:05 5.07123 6.79629 8029 ft 270 kts 91°
2026-05-04 14:05 5.07505 6.81405 7636 ft 264 kts 59°
2026-05-04 14:06 5.08700 6.82802 7251 ft 263 kts 45°
2026-05-04 14:06 5.10036 6.84077 6835 ft 264 kts 45°
2026-05-04 14:06 5.11337 6.85377 6425 ft 265 kts 46°
2026-05-04 14:06 5.12608 6.86722 6012 ft 266 kts 47°
2026-05-04 14:07 5.13861 6.88099 5605 ft 267 kts 48°
2026-05-04 14:07 5.15085 6.89475 5232 ft 266 kts 49°
2026-05-04 14:07 5.16322 6.90886 4839 ft 267 kts 49°
2026-05-04 14:07 5.17524 6.92263 4574 ft 261 kts 49°
2026-05-04 14:08 5.18697 6.93611 4342 ft 247 kts 49°
2026-05-04 14:08 5.19799 6.94895 4061 ft 239 kts 53°
2026-05-04 14:08 5.20423 6.96384 3751 ft 233 kts 89°
2026-05-04 14:08 5.19997 6.97867 3441 ft 223 kts 126°
2026-05-04 14:09 5.18135 7.00223 2832 ft 213 kts 126°
2026-05-04 14:09 5.17309 7.01466 2565 ft 210 kts 127°
2026-05-04 14:10 5.14841 7.02410 2123 ft 195 kts 197°
2026-05-04 14:10 5.13693 7.01780 1965 ft 185 kts 214°
2026-05-04 14:10 5.12620 7.01041 1965 ft 186 kts 213°
2026-05-04 14:10 5.11538 7.00349 1935 ft 178 kts 211°
2026-05-04 14:11 5.10490 6.99744 1759 ft 168 kts 208°
2026-05-04 14:11 5.08577 6.98721 1348 ft 149 kts 208°
2026-05-04 14:11 5.07664 6.98234 1171 ft 149 kts 208°
2026-05-04 14:12 5.06737 6.97737 993 ft 146 kts 208°
2026-05-04 14:12 5.05876 6.97276 797 ft 137 kts 207°
2026-05-04 14:12 5.04194 6.96371 467 ft 137 kts 208°
2026-05-04 14:13 5.03356 6.95921 300 ft 136 kts 207°
2026-05-04 14:13 5.02518 6.95474 169 ft 135 kts 207°
2026-05-04 14:13 5.01750 6.95064 148 ft 104 kts 210°
2026-05-04 14:13 5.01265 6.94801 148 ft 55 kts 207°
2026-05-04 14:14 5.01046 6.94716 147 ft 24 kts 184°
2026-05-04 14:14 5.00840 6.94725 144 ft 10 kts 144°
2026-05-04 14:14 5.00832 6.94794 142 ft 11 kts 51°
2026-05-04 14:15 5.00982 6.94881 144 ft 13 kts 28°
2026-05-04 14:15 5.01164 6.94980 144 ft 16 kts 26°
2026-05-04 14:16 5.01383 6.95095 145 ft 18 kts 29°
2026-05-04 14:16 5.01484 6.95150 146 ft 11 kts 27°
2026-05-04 14:17 5.01511 6.95241 148 ft 7 kts 116°
2026-05-04 14:17 5.01490 6.95278 148 ft 4 kts 118°
2026-05-04 14:17 5.01484 6.95289 149 ft 0 kts 118°